McConnell AFB, KS

3:39 AM CDT on May 24, 2017 (GMT -0500)
McConnell Air Force Base

Weather History for KIAB - September, 2013

Change the Weather History Date:

Tuesday, September 24, 2013

  Actual Average Record
Temperature  
Mean Temperature 68 °F -  
Max Temperature 78 °F 76 °F 91 °F (2005)
Min Temperature 60 °F 55 °F 42 °F (2000)
Cooling Degree Days 4    
Growing Degree Days 18 (Base 50)    
Moisture  
Dew Point 55 °F    
Average Humidity 61    
Maximum Humidity 78    
Minimum Humidity 44    
Precipitation  
Precipitation 0.00 in - - ()
Sea Level Pressure  
Sea Level Pressure 29.88 in    
Wind  
Wind Speed 12 mph (NW)    
Max Wind Speed 21 mph    
Max Gust Speed 28 mph    
Visibility 10 miles    
Events      
Averages and records for this station are not official NWS values.
T = Trace of Precipitation, MM = Missing Value Source: NWS Daily Summary

Daily Weather History Graph

Daily Weather History Graph

Search for Another Location

Airport or City:

Trip Planner

Search our weather history database for the weather conditions in past years. The results will help you decide how hot, cold, wet, or windy it might be!

Date:

Astronomy

Sep. 24, 2013 Rise Set
Actual Time 7:18 AM CDT 7:22 PM CDT
Civil Twilight 6:52 AM CDT 7:48 PM CDT
Nautical Twilight 6:22 AM CDT 8:19 PM CDT
Astronomical Twilight 5:51 AM CDT 8:49 PM CDT
Moon 10:47 PM CDT 12:28 PM CDT
Length of Visible Light 12h 55m
Length of Day
12h 03m
Waning Gibbous, 73% of the Moon is Illuminated
Sep 24
Waning Gibbous
Sep 26
Last Quarter
Oct 4
New
Oct 11
First Quarter
Oct 18
Full

Hourly Weather History & Observations

Time (CDT) Temp. Dew Point Humidity Pressure Visibility Wind Dir Wind Speed Gust Speed Precip Events Conditions
12:58 AM 67.5 °F 53.4 °F 61% 29.79 in 10.0 mi SSW 9.2 mph - N/A   Clear
1:58 AM 65.8 °F 52.5 °F 62% 29.80 in 10.0 mi WSW 6.9 mph - N/A   Clear
2:58 AM 65.3 °F 51.8 °F 62% 29.80 in 10.0 mi West 13.8 mph - N/A   Clear
3:58 AM 63.0 °F 52.5 °F 69% 29.82 in 10.0 mi West 10.4 mph - N/A   Clear
4:58 AM 62.4 °F 53.1 °F 71% 29.83 in 10.0 mi WSW 11.5 mph - N/A   Clear
5:58 AM 61.5 °F 53.2 °F 74% 29.84 in 10.0 mi West 10.4 mph - N/A   Clear
6:58 AM 60.8 °F 52.7 °F 75% 29.86 in 10.0 mi West 12.7 mph - N/A   Clear
7:58 AM 60.8 °F 52.3 °F 74% 29.88 in 10.0 mi West 16.1 mph 27.6 mph N/A   Clear
8:58 AM 62.6 °F 52.9 °F 70% 29.87 in 10.0 mi WNW 17.3 mph - N/A   Clear
9:58 AM 65.7 °F 54.3 °F 67% 29.89 in 10.0 mi WNW 18.4 mph - N/A   Clear
10:58 AM 69.3 °F 55.6 °F 62% 29.90 in 10.0 mi WNW 20.7 mph 27.6 mph N/A   Clear
11:58 AM 72.0 °F 55.8 °F 57% 29.90 in 10.0 mi WNW 20.7 mph 24.2 mph N/A   Scattered Clouds
12:58 PM 73.6 °F 56.5 °F 55% 29.90 in 10.0 mi WNW 17.3 mph 23.0 mph N/A   Mostly Cloudy
1:10 PM 73.4 °F 55.4 °F 53% 29.92 in 10.0 mi West 16.1 mph 26.5 mph N/A   Mostly Cloudy
1:16 PM 73.4 °F 55.4 °F 53% 29.92 in 10.0 mi NW 18.4 mph 24.2 mph N/A   Mostly Cloudy
1:17 PM 73.4 °F 55.4 °F 53% 29.92 in 10.0 mi NW 19.6 mph 24.2 mph N/A   Mostly Cloudy
1:58 PM 74.7 °F 55.9 °F 52% 29.89 in 10.0 mi West 16.1 mph 26.5 mph N/A   Mostly Cloudy
2:58 PM 75.6 °F 55.0 °F 49% 29.89 in 10.0 mi WNW 18.4 mph 25.3 mph N/A   Partly Cloudy
3:34 PM 77.0 °F 55.4 °F 47% 29.90 in 10.0 mi West 13.8 mph 20.7 mph N/A   Mostly Cloudy
3:58 PM 77.0 °F 54.3 °F 45% 29.88 in 10.0 mi NW 16.1 mph 21.9 mph N/A   Partly Cloudy
4:48 PM 77.0 °F 53.6 °F 44% 29.90 in 10.0 mi NNW 11.5 mph 20.7 mph N/A   Clear
4:58 PM 77.2 °F 54.7 °F 46% 29.88 in 10.0 mi NW 10.4 mph - N/A   Clear
5:35 PM 77.0 °F 53.6 °F 44% 29.90 in 10.0 mi NW 12.7 mph 20.7 mph N/A   Partly Cloudy
5:58 PM 76.1 °F 53.6 °F 45% 29.88 in 10.0 mi North 16.1 mph - N/A   Clear
6:58 PM 73.0 °F 54.3 °F 52% 29.89 in 10.0 mi North 11.5 mph - N/A   Clear
7:58 PM 70.0 °F 55.0 °F 59% 29.90 in 10.0 mi NNW 8.1 mph - N/A   Clear
8:58 PM 65.1 °F 56.3 °F 73% 29.91 in 10.0 mi NNE 4.6 mph - N/A   Clear
9:13 PM 64.4 °F 57.2 °F 77% 29.93 in 9.0 mi NNE 5.8 mph - N/A   Clear
9:23 PM 64.4 °F 57.2 °F 77% 29.93 in 9.0 mi NNE 9.2 mph - N/A   Clear
9:58 PM 63.9 °F 56.8 °F 78% 29.92 in 10.0 mi NNE 5.8 mph - N/A   Clear
10:58 PM 63.7 °F 56.8 °F 78% 29.91 in 10.0 mi NNE 1.2 mph - N/A   Clear
11:58 PM 63.7 °F 56.8 °F 78% 29.91 in 10.0 mi North 1.2 mph - N/A   Clear